Location: Unspecified
(40.9447°N, 78.9903°W)
Time: 04:15:09
(UTC-04:00)

Okean 3 - Pass Details

Date: 02 August 2021
Orbit: 575 x 601 km, 82.5° (Epoch: 26 September)

Event Time Altitude Azimuth Distance (km) Brightness Sun altitude
Rises 01:37:05 0° 354° (N) 2,845 8.1 -31.3°
Reaches altitude 10° 01:39:19 10° 356° (N) 1,935 7.0 -31.2°
Enters shadow 01:41:32 30° 1° (N) 1,075 5.3 -31.2°
